Home   Weather   Managua   Past weeks

Flag for Nicaragua Past Weather in Managua, Nicaragua — Yesterday and Last 2 Weeks

Now
79 °F

Passing clouds.


Feels Like: 82 °F
Forecast: 74 / 93 °F
Wind: 7 mph from South

Location: Managua A. C. Sandino

Current Time: Sep 30, 2016 at 9:19:59 PM

Latest Report: Sep 30, 2016 at 8:00 PM


Visibility: N/A

Pressure: 29.86 "Hg

Humidity: 79%

Dew Point: 72 °F

Location of ManaguaLocation

Past Weather in Managua — Graph

°F

Managua Temperature Yesterday

Maximum temperature yesterday: 91 °F (at 1:00 PM)
Minimum temperature yesterday: 75 °F (at 3:00 AM)
Average temperature yesterday: 83 °F

High & Low Weather Summary for the Past Weeks

 TemperatureHumidityPressure
High93 °F (Sep 30, 1:00 PM)100% (Sep 16, 3:00 AM)29.92 "Hg (Sep 16, 3:00 AM)
Low73 °F (Sep 20, 6:00 AM)44% (Sep 30, 3:00 PM)29.74 "Hg (Sep 18, 3:00 PM)
Average81 °F78%29.84 "Hg
* Reported Sep 15 8:00 PM — Sep 30 8:00 PM, Managua, Weather by CustomWeather, © 2016

Note: Actual official high and low records may vary slightly from our data, if they occured in-between our weather recording intervals... More about our weather records

Advertising

Managua Weather History for the Previous 24 Hours

Scroll right to see more
 ConditionsComfort  
Time TempWeatherWind HumidityBarometerVisibility
8:00 PM
Fri, Sep 30
79 °FPassing clouds.7 mph79%29.86 "HgN/A
7:00 PM81 °FPassing clouds.12 mph79%29.83 "HgN/A
6:00 PM88 °FPassing clouds.9 mph62%29.80 "HgN/A
5:00 PM91 °FScattered clouds.12 mph49%29.77 "HgN/A
4:00 PM91 °FScattered clouds.12 mph49%29.77 "HgN/A
3:00 PM93 °FScattered clouds.12 mph44%29.77 "HgN/A
2:00 PM93 °FScattered clouds.16 mph53%29.80 "HgN/A
1:00 PM93 °FScattered clouds.14 mph49%29.83 "HgN/A
12:00 PM90 °FScattered clouds.12 mph52%29.86 "HgN/A
8:00 AM84 °FScattered clouds.7 mph74%29.92 "HgN/A
7:00 AM81 °FScattered clouds.5 mph79%29.89 "HgN/A
6:00 AM75 °FScattered clouds.No wind94%29.86 "HgN/A
5:00 AM75 °FPassing clouds.No wind94%29.86 "HgN/A
4:00 AM77 °FPassing clouds.No wind89%29.86 "HgN/A
3:00 AM75 °FPassing clouds.No wind94%29.86 "HgN/A
2:00 AM77 °FPassing clouds.No wind89%29.86 "HgN/A
1:00 AM77 °FPassing clouds.No wind89%29.89 "HgN/A
12:00 AM77 °FPassing clouds.No wind89%29.89 "HgN/A
11:00 PM
Thu, Sep 29
79 °FPassing clouds.No wind84%29.92 "HgN/A
10:00 PM79 °FPassing clouds.No wind84%29.92 "HgN/A
9:00 PM81 °FPassing clouds.5 mph79%29.89 "HgN/A
Weather by CustomWeather, © 2016

See weather overviewHow to use our weather pages